Tracking 21676 objects as of 29-Oct-2020
HD Live streaming from Space Station
objects crossing your sky now

NEE 02 KRYSAOR

Track NEE 02 KRYSAOR now!
10-day predictions
NEE 02 KRYSAOR is classified as:


NORAD ID: 39441
Int'l Code: 2013-066AB
Perigee: 595.8 km
Apogee: 708.4 km
Inclination: 97.7 °
Period: 97.6 minutes
Semi major axis: 7023 km
RCS: Unknown
Launch date: November 21, 2013
Source: Ecuador (ECU)
Launch site: Orenburg, Russia (OREN)

Uplink (MHz):
Downlink (MHz): 980.000(bandwidth 25MHz)
Beacon (MHz):
Mode:
Call sign:
Status:

aabbcc
Your satellite tracking list
Your tracking list is empty




NASA's NSSDC Master Catalog

Two Line Element Set (TLE):
1 39441U 13066AB  20302.93495032  .00000215  00000-0  37777-4 0  9992
2 39441  97.6547 275.6095 0080131 276.7639  82.4457 14.75064746373241
Source of the keplerian elements: AFSPC